Location: Harwich
(41.7160°N, 69.9939°W)
Time: 10:07:34
(UTC+02:00)

A-11 Canister half - Pass Details

Date: 27 February 2024
Orbit: 1513 x 1686 km, 47.2° (Epoch: 24 April)

Event Time Altitude Azimuth Distance (km) Brightness Sun altitude
Exits shadow 10:49:01 19° 291° (WNW) 3,262 10.2 -17.5°
Maximum altitude 10:56:51 69° 12° (NNE) 1,736 9.3 -16.0°
Drops below altitude 10° 11:06:33 10° 95° (E) 3,800 12.5 -14.2°
Sets 11:09:38 0° 98° (E) 4,761 13.5 -13.7°
